Find Umbra-10

NORAD ID: 60547 Int'l Des: 2024-149 Owner: UMBRA Country: US operational
LEOCIRCULARRETROGRADESSO

Live Position

Loading 3D Globe...

About Umbra-10

Description loading...

Upcoming Passes

Passes for default location (London). Set your location on the main map for personalized predictions.

Altitude History

Loading altitude history...

Two-Line Element Set

1 60547U 24149CH 26104.15220928 .00007381 00000-0 38622-3 0 9997
2 60547 97.6970 190.3889 0001979 150.4563 209.6781 15.16142300 91028
Epoch: Apr 14, 2026 • Age: 8 hours

Current Status

Altitude 546.6 km
Velocity 7.59 km/s
Sub-Earth Point -82.31°S, 94.97°W
Launch Date Aug 16, 2024
Age 1.6 years
Type other

Technical Details

Classification Payload
Mass 84.00 kg
Dry Mass 79.00 kg
Total Mass 84.00 kg
Length 0.80 m
Diameter 0.60 m
Span 4.00 m
Shape Box + 2 Pan + Dish
Manufacturer UMBRA
Bus Type Espasat
Phase Status In Orbit
Owner/State UMBRA/US

Most Searched